Location: Unspecified
(0.0000°N, 0.0000°E)
Time: 04:12:13
(UTC+00:00)

SKYMED 3 - Visible Passes

Search period start: 23 January 2018 00:00
Search period end: 02 February 2018 00:00
Orbit: 621 x 623 km, 97.9° (Epoch: 22 January)

Date Brightness Start Highest point End Pass type
(mag) Time Alt. Az. Time Alt. Az. Time Alt. Az.
23 Jan 6.9 05:01:42 10° SE 05:05:10 23° ENE 05:08:37 10° NNE visible
23 Jan 8.0 18:49:21 10° WNW 18:49:58 10° WNW 18:50:35 10° W visible
24 Jan 5.9 05:19:03 10° SSE 05:23:09 42° ENE 05:27:13 10° N visible
25 Jan 4.7 05:36:48 10° SSE 05:41:08 79° ENE 05:45:27 10° N visible
27 Jan 7.7 04:40:16 10° E 04:41:13 11° ENE 04:42:10 10° ENE visible
28 Jan 7.2 04:56:05 10° SE 04:59:12 19° ENE 05:02:18 10° NNE visible
28 Jan 7.7 18:42:05 10° NW 18:44:00 13° WNW 18:45:56 10° WSW visible
29 Jan 6.3 05:13:14 10° SE 05:17:11 34° ENE 05:21:06 10° NNE visible
30 Jan 5.1 05:30:52 10° SSE 05:35:10 64° ENE 05:39:26 10° N visible
